Hourly Data Report for December 03, 2018

TORONTO CITY
ONTARIO
Current Station Operator: ECCC - MSC

43°40'00.000" N
79°24'00.000" W
112.50 m
6158355
71508
XTO

Download Data

Hourly Data (December 2018)
Hourly Data Report for December 3, 2018
TIME
LST
Temp Definition
°C
Dew Point Definition
°C
Rel Hum Definition
%
Precip. Amount Definition
mm

Wind Dir Definition
10's deg

Wind Spd Definition
km/h
Visibility Definition
km
Stn Press Definition
kPa
Hmdx Definition


Wind Chill Definition


Weather Definition


00:00 7.9 6.7 92 0.2 LegendMM LegendMM   98.27     LegendNANA
01:00 7.6 6.3 91 0.4 LegendMM LegendMM   98.27     LegendNANA
02:00 7.0 5.8 92 0.7 LegendMM LegendMM   98.31     LegendNANA
03:00 6.3 3.0 79 0.0 LegendMM LegendMM   98.43     LegendNANA
04:00 5.6 3.2 84 0.2 LegendMM LegendMM   98.45     LegendNANA
05:00 5.5 2.5 81 0.0 LegendMM LegendMM   98.52     LegendNANA
06:00 5.7 1.9 77 0.0 LegendMM LegendMM   98.58     LegendNANA
07:00 5.5 1.8 77 0.0 LegendMM LegendMM   98.67     LegendNANA
08:00 3.7 0.2 78 0.0 LegendMM LegendMM   98.85     LegendNANA
09:00 3.1 -1.3 73 0.0 LegendMM LegendMM   98.99     LegendNANA
10:00 2.3 -2.0 73 0.0 LegendMM LegendMM   99.12     LegendNANA
11:00 1.8 -2.0 76 0.0 LegendMM LegendMM   99.25     LegendNANA
12:00 1.8 -2.5 73 0.0 LegendMM LegendMM   99.26     LegendNANA
13:00 1.6 -3.4 69 0.0 LegendMM LegendMM   99.27     LegendNANA
14:00 1.7 -3.0 71 0.0 LegendMM LegendMM   99.38     LegendNANA
15:00 1.4 -2.3 76 0.2 LegendMM LegendMM   99.48     LegendNANA
16:00 1.0 -1.6 83 0.0 LegendMM LegendMM   99.58     LegendNANA
17:00 0.8 -1.2 87 0.2 LegendMM LegendMM   99.69     LegendNANA
18:00 1.0 -1.8 82 0.2 LegendMM LegendMM   99.79     LegendNANA
19:00 0.9 -2.8 76 0.0 LegendMM LegendMM   99.90     LegendNANA
20:00 0.8 -3.6 73 0.0 LegendMM LegendMM   99.97     LegendNANA
21:00 0.4 -4.4 70 0.0 LegendMM LegendMM   100.03     LegendNANA
22:00 0.0 -5.3 67 0.0 LegendMM LegendMM   100.08     LegendNANA
23:00 -0.5 -6.3 65 0.0 LegendMM LegendMM   100.11     LegendNANA

Notes on Data Quality.

Legend

  • E = Estimated
  • M = Missing
  • NA = Not Available*
  • [empty] = Indicates an unobserved value
Date modified: